KLM49J EGLL-RJTT

Flight info

Callsign KLM49J
Flight time N/A
Altitude 35000
Route DET L6 DVR L9 KONAN UL607 MATUG DCT GUBAX DCT KOMIB L984 SULUS Z650 VEMUT DCT PEPIK DCT BERVA DCT ERGOM DCT BUDOP DCT DVA DCT BULEN DCT RIXEN UA17 YAVRU UA4 SIV UW706 TBN UN61 NOLGA DCT BARAD/N0498F370 DCT SUBUT T916 BALUN/K0917F370 T916 MIHOS N147 GENGA DCT SARIN/K0906S1130 A368 FKG W188 ADPET/K0895S1190 W188 LIKMI W270 DKO W69 HUR B339 LADIX W34 VAPGU W100 ORAVA W201 UNSEK A326 DONVO G597 AGAVO/N0492F390 Y644 EGOBA Y697 BIKSI/N0498F410 Y697 LANAT Y71 XAC
Aircraft B789/H-SDE1E2E3FGHIJ2J3J4J5M1RWXY/LB1D1

Departure

Time 2026-05-07 21:57
Airport London Heathrow Airport (EGLL)

Arrival

Time N/A
Airport Tokyo Haneda International Airport (RJTT)
Time Latitude Longitude Altitude Speed Heading
2026-05-07 21:26 51.46904 -0.46417 92 ft 0 kts 56°
2026-05-07 21:36 51.46900 -0.46427 92 ft 3 kts 56°
2026-05-07 21:36 51.46889 -0.46454 70 ft 3 kts 56°
2026-05-07 21:37 51.46878 -0.46479 92 ft 2 kts 56°
2026-05-07 21:37 51.46870 -0.46501 95 ft 3 kts 76°
2026-05-07 21:37 51.46870 -0.46526 92 ft 3 kts 129°
2026-05-07 21:37 51.46885 -0.46546 92 ft 3 kts 149°
2026-05-07 21:38 51.46893 -0.46554 91 ft 0 kts 146°
2026-05-07 21:47 51.46888 -0.46549 91 ft 2 kts 146°
2026-05-07 21:47 51.46862 -0.46521 93 ft 7 kts 146°
2026-05-07 21:48 51.46810 -0.46465 92 ft 11 kts 147°
2026-05-07 21:48 51.46725 -0.46427 90 ft 15 kts 176°
2026-05-07 21:48 51.46662 -0.46470 96 ft 7 kts 254°
2026-05-07 21:48 51.46659 -0.46573 96 ft 12 kts 270°
2026-05-07 21:49 51.46660 -0.46735 96 ft 17 kts 269°
2026-05-07 21:49 51.46659 -0.46958 95 ft 23 kts 269°
2026-05-07 21:49 51.46658 -0.47230 91 ft 23 kts 269°
2026-05-07 21:49 51.46657 -0.47462 90 ft 16 kts 269°
2026-05-07 21:50 51.46656 -0.47593 89 ft 11 kts 269°
2026-05-07 21:50 51.46656 -0.47709 90 ft 10 kts 269°
2026-05-07 21:50 51.46655 -0.47820 90 ft 10 kts 269°
2026-05-07 21:50 51.46654 -0.47931 89 ft 10 kts 269°
2026-05-07 21:51 51.46654 -0.48039 90 ft 9 kts 269°
2026-05-07 21:51 51.46653 -0.48146 91 ft 10 kts 270°
2026-05-07 21:51 51.46654 -0.48271 92 ft 12 kts 270°
2026-05-07 21:51 51.46653 -0.48421 92 ft 14 kts 269°
2026-05-07 21:52 51.46652 -0.48596 92 ft 17 kts 271°
2026-05-07 21:52 51.46651 -0.48697 92 ft 7 kts 258°
2026-05-07 21:52 51.46628 -0.48742 94 ft 1 kts 211°
2026-05-07 21:53 51.46623 -0.48746 90 ft 1 kts 209°
2026-05-07 21:53 51.46610 -0.48756 94 ft 3 kts 204°
2026-05-07 21:54 51.46589 -0.48770 92 ft 4 kts 202°
2026-05-07 21:54 51.46563 -0.48781 92 ft 3 kts 187°
2026-05-07 21:54 51.46554 -0.48782 93 ft 0 kts 183°
2026-05-07 21:55 51.46553 -0.48782 93 ft 1 kts 183°
2026-05-07 21:55 51.46537 -0.48779 93 ft 4 kts 171°
2026-05-07 21:55 51.46497 -0.48757 93 ft 8 kts 146°
2026-05-07 21:56 51.46477 -0.48668 94 ft 11 kts 89°
2026-05-07 21:56 51.46478 -0.48586 91 ft 0 kts 90°
2026-05-07 21:56 51.46478 -0.48582 91 ft 2 kts 90°
2026-05-07 21:56 51.46478 -0.48362 93 ft 46 kts 89°
2026-05-07 21:57 51.46483 -0.47531 88 ft 103 kts 89°
2026-05-07 21:57 51.46486 -0.46110 92 ft 151 kts 89°
2026-05-07 21:57 51.46493 -0.44191 120 ft 191 kts 92°
2026-05-07 21:57 51.46451 -0.42198 1104 ft 156 kts 103°
2026-05-07 21:58 51.45954 -0.40660 1539 ft 169 kts 134°
2026-05-07 21:58 51.45231 -0.39054 1817 ft 186 kts 114°
2026-05-07 21:58 51.44667 -0.37182 2318 ft 190 kts 122°
2026-05-07 21:58 51.44061 -0.35252 2739 ft 202 kts 115°
2026-05-07 21:59 51.43533 -0.33094 3176 ft 215 kts 108°
2026-05-07 21:59 51.43124 -0.30734 3690 ft 224 kts 103°
2026-05-07 21:59 51.42827 -0.28254 4322 ft 227 kts 102°
2026-05-07 21:59 51.42430 -0.25665 4532 ft 252 kts 104°
2026-05-07 22:00 51.42022 -0.22883 5102 ft 257 kts 103°
2026-05-07 22:00 51.41640 -0.20049 5692 ft 266 kts 102°
2026-05-07 22:00 51.41242 -0.17092 6012 ft 277 kts 102°
2026-05-07 22:00 51.40826 -0.14072 6027 ft 279 kts 103°
2026-05-07 22:01 51.40406 -0.11043 5981 ft 274 kts 103°
2026-05-07 22:01 51.39999 -0.08104 5989 ft 268 kts 103°
2026-05-07 22:01 51.39597 -0.05192 5992 ft 267 kts 103°
2026-05-07 22:01 51.39189 -0.02254 5992 ft 273 kts 102°
2026-05-07 22:02 51.38778 0.00699 6507 ft 270 kts 103°
2026-05-07 22:02 51.38368 0.03646 7188 ft 275 kts 103°
2026-05-07 22:02 51.37947 0.06660 7876 ft 279 kts 103°
2026-05-07 22:02 51.37519 0.09724 8535 ft 285 kts 103°
2026-05-07 22:03 51.37084 0.12827 9250 ft 289 kts 103°
2026-05-07 22:03 51.36639 0.15991 9923 ft 293 kts 103°
2026-05-07 22:03 51.36184 0.19224 10343 ft 307 kts 103°
2026-05-07 22:03 51.35693 0.22697 10387 ft 333 kts 103°
2026-05-07 22:04 51.35163 0.26447 10443 ft 358 kts 103°
2026-05-07 22:04 51.34597 0.30441 10703 ft 373 kts 103°
2026-05-07 22:04 51.34024 0.34481 11462 ft 373 kts 104°
2026-05-07 22:04 51.33444 0.38549 12089 ft 378 kts 104°
2026-05-07 22:05 51.32856 0.42661 12730 ft 381 kts 104°
2026-05-07 22:05 51.32261 0.46811 13199 ft 384 kts 104°
2026-05-07 22:05 51.31660 0.50996 13842 ft 388 kts 104°
2026-05-07 22:05 51.31053 0.55217 14415 ft 391 kts 104°
2026-05-07 22:06 51.30434 0.59474 14956 ft 395 kts 106°
2026-05-07 22:06 51.29629 0.63666 15459 ft 398 kts 108°
2026-05-07 22:06 51.28880 0.67942 16015 ft 401 kts 107°
2026-05-07 22:06 51.28137 0.72262 16556 ft 405 kts 108°
2026-05-07 22:07 51.27336 0.76590 17096 ft 408 kts 108°
2026-05-07 22:07 51.26511 0.80953 17623 ft 412 kts 108°
2026-05-07 22:07 51.25702 0.85347 18152 ft 415 kts 108°
2026-05-07 22:07 51.24908 0.89713 18628 ft 418 kts 108°
2026-05-07 22:08 51.24082 0.94188 19118 ft 421 kts 108°
2026-05-07 22:08 51.23243 0.98680 19504 ft 425 kts 108°
2026-05-07 22:08 51.22397 1.03221 19967 ft 427 kts 108°
2026-05-07 22:08 51.21552 1.07773 20382 ft 430 kts 108°
2026-05-07 22:09 51.20695 1.12364 20797 ft 432 kts 108°
2026-05-07 22:09 51.19831 1.16974 21201 ft 435 kts 108°
2026-05-07 22:09 51.18961 1.21604 21591 ft 438 kts 108°
2026-05-07 22:09 51.18086 1.26253 21977 ft 440 kts 108°
2026-05-07 22:10 51.17199 1.30957 22348 ft 442 kts 108°
2026-05-07 22:10 51.16362 1.35688 22699 ft 446 kts 102°
2026-05-07 22:10 51.16043 1.40548 23021 ft 449 kts 95°
2026-05-07 22:10 51.15806 1.45508 23328 ft 452 kts 95°
2026-05-07 22:11 51.15567 1.50533 23679 ft 454 kts 95°
2026-05-07 22:11 51.15325 1.55559 23968 ft 456 kts 95°
2026-05-07 22:11 51.15077 1.60613 24258 ft 458 kts 95°
2026-05-07 22:11 51.14826 1.65688 24526 ft 460 kts 96°
2026-05-07 22:12 51.14574 1.70773 24816 ft 462 kts 96°
2026-05-07 22:12 51.14318 1.75879 25084 ft 464 kts 96°
2026-05-07 22:12 51.14058 1.81016 25348 ft 466 kts 96°
2026-05-07 22:12 51.13795 1.86162 25606 ft 467 kts 96°
2026-05-07 22:13 51.13529 1.91329 25864 ft 469 kts 96°
2026-05-07 22:13 51.13259 1.96517 26084 ft 472 kts 96°
2026-05-07 22:13 51.12988 2.01704 26340 ft 473 kts 96°
2026-05-07 22:13 51.12712 2.06935 26578 ft 475 kts 96°
2026-05-07 22:14 51.12431 2.12183 26816 ft 477 kts 96°
2026-05-07 22:14 51.12148 2.17447 27053 ft 478 kts 96°
2026-05-07 22:14 51.11862 2.22734 27273 ft 480 kts 96°
2026-05-07 22:14 51.11572 2.28026 27507 ft 482 kts 96°
2026-05-07 22:15 51.11279 2.33346 27722 ft 483 kts 96°
2026-05-07 22:15 51.10986 2.38616 27936 ft 485 kts 96°
2026-05-07 22:15 51.10685 2.43983 28114 ft 487 kts 96°
2026-05-07 22:15 51.10382 2.49356 28340 ft 488 kts 96°
2026-05-07 22:16 51.10074 2.54752 28541 ft 490 kts 96°
2026-05-07 22:16 51.09764 2.60151 28742 ft 491 kts 96°
2026-05-07 22:16 51.09364 2.65552 28915 ft 492 kts 104°
2026-05-07 22:16 51.08475 2.70799 29062 ft 492 kts 108°
2026-05-07 22:17 51.07516 2.76029 29268 ft 493 kts 108°
2026-05-07 22:17 51.06552 2.81275 29464 ft 495 kts 108°
2026-05-07 22:17 51.05602 2.86540 29626 ft 496 kts 107°
2026-05-07 22:17 51.04647 2.91826 29814 ft 498 kts 108°
2026-05-07 22:18 51.03678 2.97115 29977 ft 499 kts 108°
2026-05-07 22:18 51.01733 3.07684 30296 ft 502 kts 108°
2026-05-07 22:18 51.00753 3.13016 30428 ft 503 kts 108°
2026-05-07 22:19 50.99766 3.18354 30585 ft 504 kts 108°
2026-05-07 22:19 50.98772 3.23706 30725 ft 505 kts 108°
2026-05-07 22:19 50.97861 3.28602 30852 ft 506 kts 108°
2026-05-07 22:19 50.96861 3.33968 30968 ft 508 kts 108°
2026-05-07 22:20 50.95855 3.39350 31090 ft 509 kts 108°
2026-05-07 22:20 50.94846 3.44727 31276 ft 509 kts 108°
2026-05-07 22:20 50.93836 3.50095 31462 ft 508 kts 108°
2026-05-07 22:20 50.92824 3.55459 31672 ft 508 kts 108°
2026-05-07 22:21 50.91810 3.60824 31856 ft 508 kts 108°
2026-05-07 22:21 50.90802 3.66135 32049 ft 507 kts 108°
2026-05-07 22:21 50.89773 3.71484 32241 ft 507 kts 108°
2026-05-07 22:21 50.88751 3.76754 32436 ft 507 kts 108°
2026-05-07 22:22 50.87717 3.82096 32568 ft 508 kts 108°
2026-05-07 22:22 50.86685 3.87435 32771 ft 507 kts 108°
2026-05-07 22:22 50.85651 3.92765 32951 ft 507 kts 108°
2026-05-07 22:22 50.84609 3.98098 33138 ft 506 kts 108°
2026-05-07 22:23 50.83568 4.03419 33311 ft 506 kts 108°
2026-05-07 22:23 50.82526 4.08737 33510 ft 506 kts 108°
2026-05-07 22:23 50.81482 4.14055 33693 ft 505 kts 109°
2026-05-07 22:23 50.80435 4.19362 33878 ft 505 kts 109°
2026-05-07 22:24 50.79387 4.24663 34074 ft 504 kts 109°
2026-05-07 22:24 50.78340 4.29945 34242 ft 503 kts 109°
2026-05-07 22:24 50.77291 4.35224 34372 ft 504 kts 109°
2026-05-07 22:24 50.76265 4.40375 34501 ft 504 kts 109°
2026-05-07 22:25 50.75209 4.45657 34630 ft 504 kts 109°
2026-05-07 22:25 50.74153 4.50929 34747 ft 504 kts 109°
2026-05-07 22:25 50.73094 4.56200 34904 ft 503 kts 109°
2026-05-07 22:25 50.72033 4.61467 35024 ft 503 kts 109°
2026-05-07 22:26 50.70998 4.66756 35098 ft 505 kts 108°
2026-05-07 22:26 50.68975 4.77386 35089 ft 504 kts 108°
2026-05-07 22:27 50.66912 4.87842 35084 ft 502 kts 108°
2026-05-07 22:27 50.64832 4.98332 35080 ft 501 kts 110°
2026-05-07 22:28 50.62649 5.08755 35087 ft 501 kts 109°
2026-05-07 22:28 50.60514 5.19209 35085 ft 501 kts 109°
2026-05-07 22:29 50.58338 5.29626 35082 ft 501 kts 109°
2026-05-07 22:29 50.56168 5.40057 35084 ft 502 kts 109°
2026-05-07 22:30 50.53979 5.50475 35090 ft 502 kts 110°
2026-05-07 22:30 50.52153 5.59144 35084 ft 502 kts 110°
2026-05-07 22:31 50.50509 5.69823 35099 ft 504 kts 102°
2026-05-07 22:31 50.49137 5.80634 35105 ft 504 kts 103°
2026-05-07 22:32 50.47716 5.91426 35106 ft 504 kts 103°
2026-05-07 22:32 50.46308 6.02212 35100 ft 505 kts 103°
2026-05-07 22:33 50.44877 6.12990 35089 ft 505 kts 103°
2026-05-07 22:33 50.43439 6.23801 35099 ft 507 kts 103°
2026-05-07 22:34 50.41994 6.34547 35095 ft 506 kts 103°
2026-05-07 22:34 50.41019 6.45456 35090 ft 506 kts 97°
2026-05-07 22:35 50.40196 6.56412 35087 ft 505 kts 98°